Alturas, CA

4:24 PM PST on January 19, 2017 (GMT -0800)
Alturas Municipal

Weather History for KAAT - August, 2013

Change the Weather History Date:

Friday, August 23, 2013

  Actual Average Record
Temperature  
Mean Temperature 61 °F 63 °F  
Max Temperature 82 °F 85 °F 100 °F (1917)
Min Temperature 39 °F 42 °F 26 °F (1960)
Degree Days  
Heating Degree Days 4 3  
Month to date heating degree days 43 39  
Since 1 June heating degree days 203 260  
Since 1 July heating degree days 47 80  
Cooling Degree Days 0 1  
Month to date cooling degree days 39 48  
Year to date cooling degree days 255 143  
Since 1 June cooling degree days 255 143  
Growing Degree Days 12 (Base 50)    
Moisture  
Dew Point 39 °F    
Average Humidity 55    
Maximum Humidity 96    
Minimum Humidity 14    
Precipitation  
Precipitation 0.00 in 0.01 in 0.87 in (1989)
Month to date precipitation 0.70 0.25  
Year to date precipitation 5.13 9.03  
Sea Level Pressure  
Sea Level Pressure 29.90 in    
Wind  
Wind Speed 4 mph (West)    
Max Wind Speed 13 mph    
Max Gust Speed 15 mph    
Visibility 10 miles    
Events      
T = Trace of Precipitation, MM = Missing Value Source: NWS Daily Summary

Daily Weather History Graph

Daily Weather History Graph

Search for Another Location

Airport or City:

Trip Planner

Search our weather history database for the weather conditions in past years. The results will help you decide how hot, cold, wet, or windy it might be!

Date:

Astronomy

Aug. 23, 2013 Rise Set
Actual Time 6:19 AM PDT 7:49 PM PDT
Civil Twilight 5:50 AM PDT 8:18 PM PDT
Nautical Twilight 5:15 AM PDT 8:53 PM PDT
Astronomical Twilight 4:38 AM PDT 9:30 PM PDT
Moon 9:07 PM PDT (8/23) 9:23 AM PDT (8/23)
Length of Visible Light 14h 27m
Length of Day
13h 29m
Waning Gibbous, 91% of the Moon is Illuminated
Aug 23
Waning Gibbous
Aug 28
Last Quarter
Sep 5
New
Sep 12
First Quarter
Sep 19
Full

Hourly Weather History & Observations

Time (PDT) Temp. Dew Point Humidity Pressure Visibility Wind Dir Wind Speed Gust Speed Precip Events Conditions
12:55 AM 48.0 °F 46.0 °F 93% 29.98 in 10.0 mi Calm Calm - N/A   Clear
1:55 AM 48.9 °F 46.0 °F 90% 29.97 in 10.0 mi Calm Calm - N/A   Clear
2:55 AM 46.0 °F 44.1 °F 93% 29.96 in 10.0 mi Calm Calm - N/A   Clear
3:55 AM 44.1 °F 42.1 °F 93% 29.97 in 10.0 mi Calm Calm - N/A   Clear
4:55 AM 43.0 °F 41.0 °F 93% 29.97 in 10.0 mi Calm Calm - N/A   Clear
5:55 AM 43.0 °F 41.0 °F 93% 29.97 in 10.0 mi Calm Calm - N/A   Clear
6:55 AM 41.0 °F 39.9 °F 96% 29.98 in 10.0 mi Calm Calm - N/A   Partly Cloudy
7:55 AM 48.9 °F 46.0 °F 90% 30.00 in 10.0 mi Calm Calm - N/A   Clear
8:55 AM 55.9 °F 46.9 °F 72% 29.98 in 10.0 mi North 3.5 mph - N/A   Clear
9:55 AM 62.1 °F 46.9 °F 58% 29.96 in 10.0 mi Calm Calm - N/A   Clear
10:55 AM 69.1 °F 45.0 °F 42% 29.94 in 10.0 mi Calm Calm - N/A   Clear
11:55 AM 73.9 °F 39.0 °F 28% 29.92 in 10.0 mi WNW 6.9 mph - N/A   Clear
12:55 PM 75.9 °F 30.9 °F 19% 29.90 in 10.0 mi Variable 3.5 mph - N/A   Clear
1:55 PM 80.1 °F 28.9 °F 15% 29.87 in 10.0 mi NW 8.1 mph - N/A   Clear
2:55 PM 80.1 °F 28.9 °F 15% 29.86 in 10.0 mi NW 3.5 mph - N/A   Clear
3:55 PM 81.0 °F 33.1 °F 18% 29.83 in 10.0 mi Variable 3.5 mph - N/A   Clear
4:55 PM 81.0 °F 32.0 °F 17% 29.82 in 10.0 mi WSW 8.1 mph - N/A   Clear
5:55 PM 82.0 °F 28.0 °F 14% 29.81 in 10.0 mi West 10.4 mph - N/A   Clear
6:55 PM 79.0 °F 33.1 °F 19% 29.81 in 10.0 mi West 9.2 mph - N/A   Clear
7:55 PM 72.0 °F 33.1 °F 24% 29.81 in 10.0 mi West 8.1 mph - N/A   Clear
8:55 PM 66.0 °F 37.9 °F 36% 29.83 in 10.0 mi WSW 5.8 mph - N/A   Clear
9:55 PM 62.1 °F 37.9 °F 41% 29.85 in 10.0 mi South 3.5 mph - N/A   Clear
10:55 PM 61.0 °F 39.9 °F 46% 29.85 in 10.0 mi South 4.6 mph - N/A   Clear
11:55 PM 57.0 °F 42.1 °F 57% 29.85 in 10.0 mi SSE 3.5 mph - N/A   Clear